EW7580 Weather Reports


Display with metric or nautical units.
time (UTC)temp
F
wind
direction
speed
MPH
gust
MPH
rain 1hr
in
rain 24hr
in
rain mn
in
humidity
%
barometer
mb
20190921064042 61 0.0 0.0 0.00 0.00 0.00 71 1017.5
20190921063039 61 0.0 0.0 0.00 0.00 0.00 71 1017.4
20190921062035 61 0.0 1.0 0.00 0.00 0.00 70 1017.2
20190921061032 61 0.0 0.0 0.00 0.00 0.00 70 1017.3
20190921060028 62 0.0 0.0 0.00 0.00 0.00 70 1017.3
20190921055025 62 315 0.0 1.0 0.00 0.00 0.00 69 1017.2
20190921054022 63 270 0.0 1.0 0.00 0.00 0.00 68 1017.0
20190921053018 63 304 0.0 2.0 0.00 0.00 0.00 68 1016.9
20190921052115 63 45 0.0 3.0 0.00 0.00 0.00 68 1017.1
20190921051111 63 0.0 1.0 0.00 0.00 0.00 68 1017.1
20190921050108 63 66 0.0 3.0 0.00 0.00 0.00 68 1017.0
20190921045104 64 6 0.0 2.0 0.00 0.00 0.00 67 1017.0
20190921044102 64 315 0.0 1.0 0.00 0.00 0.00 67 1016.9
20190921043058 64 360 0.0 2.0 0.00 0.00 0.00 67 1016.8
20190921042056 64 24 0.0 2.0 0.00 0.00 0.00 67 1016.6
20190921041051 64 357 0.0 3.0 0.00 0.00 0.00 68 1016.4
20190921040047 64 309 1.0 3.0 0.00 0.00 0.00 69 1016.4
20190921035044 64 331 0.0 3.0 0.00 0.00 0.00 69 1016.2
20190921034041 64 0.0 1.0 0.00 0.00 0.00 69 1016.2
20190921033037 65 349 0.0 2.0 0.00 0.00 0.00 70 1016.2
20190921032034 65 345 0.0 1.0 0.00 0.00 0.00 70 1016.1
20190921031030 65 315 0.0 2.0 0.00 0.00 0.00 70 1016.3
20190921030027 64 350 0.0 3.0 0.00 0.00 0.00 72 1016.4
20190921025026 64 0.0 0.0 0.00 0.00 0.00 73 1016.4
20190921024020 63 0.0 1.0 0.00 0.00 0.00 74 1016.5
20190921023017 63 0.0 1.0 0.00 0.00 0.00 77 1016.5
20190921022113 62 45 0.0 1.0 0.00 0.00 0.00 78 1016.8
20190921021109 62 0.0 1.0 0.00 0.00 0.00 80 1016.7
20190921020106 62 90 0.0 1.0 0.00 0.00 0.00 80 1016.7
20190921015103 62 165 0.0 1.0 0.00 0.00 0.00 78 1016.6
20190921014100 62 0.0 0.0 0.00 0.00 0.00 78 1016.6
20190921013057 63 0.0 0.0 0.00 0.00 0.00 77 1016.8
20190921012053 63 135 0.0 1.0 0.00 0.00 0.00 76 1016.8
20190921011049 63 135 0.0 2.0 0.00 0.00 0.00 74 1016.6
20190921010046 64 144 0.0 2.0 0.00 0.00 0.00 74 1016.5
20190921005042 64 0.0 0.0 0.00 0.00 0.00 73 1016.4
20190921004039 63 0.0 0.0 0.00 0.00 0.00 73 1016.4
20190921003036 63 0.0 0.0 0.00 0.00 0.00 72 1016.4
20190921002033 64 0.0 0.0 0.00 0.00 0.00 71 1016.5
20190921001029 64 0.0 0.0 0.00 0.00 0.00 70 1016.4
20190921000026 65 0.0 0.0 0.00 0.00 0.00 68 1016.4
20190920235022 66 0.0 0.0 0.00 0.00 0.00 66 1016.2
20190920234020 67 0.0 0.0 0.00 0.00 0.00 66 1016.1
20190920233016 67 0.0 0.0 0.00 0.00 0.00 66 1016.1
20190920232113 68 0.0 0.0 0.00 0.00 0.00 64 1016.2
20190920231109 68 0.0 0.0 0.00 0.00 0.00 63 1016.2
20190920230106 69 180 0.0 2.0 0.00 0.00 0.00 61 1016.2
20190920225102 70 180 0.0 1.0 0.00 0.00 0.00 60 1016.0
20190920224059 71 202 0.0 1.0 0.00 0.00 0.00 60 1015.9
20190920223055 72 0.0 0.0 0.00 0.00 0.00 58 1016.0
20190920222052 72 0.0 0.0 0.00 0.00 0.00 57 1015.9
20190920221049 73 0.0 0.0 0.00 0.00 0.00 54 1016.0
20190920220046 74 0.0 0.0 0.00 0.00 0.00 52 1015.9
20190920215042 74 0.0 0.0 0.00 0.00 0.00 52 1016.0
20190920214038 75 0.0 0.0 0.00 0.00 0.00 49 1015.9
20190920213035 75 0.0 0.0 0.00 0.00 0.00 48 1015.9
20190920212032 76 0.0 0.0 0.00 0.00 0.00 47 1015.8
20190920211028 76 270 0.0 2.0 0.00 0.00 0.00 46 1015.8
20190920210025 76 320 0.0 3.0 0.00 0.00 0.00 46 1015.7
20190920205022 77 270 0.0 1.0 0.00 0.00 0.00 43 1015.8
20190920204018 77 309 1.0 3.0 0.00 0.00 0.00 42 1015.7
20190920203015 77 180 0.0 1.0 0.00 0.00 0.00 42 1015.7
20190920202112 77 312 2.0 4.0 0.00 0.00 0.00 41 1015.7
20190920201108 77 269 0.0 3.0 0.00 0.00 0.00 41 1015.8
20190920200105 78 323 1.0 3.0 0.00 0.00 0.00 40 1015.8
20190920195103 78 304 0.0 3.0 0.00 0.00 0.00 40 1015.8
20190920194059 79 333 1.0 3.0 0.00 0.00 0.00 39 1016.0
20190920193055 79 251 1.0 3.0 0.00 0.00 0.00 39 1016.0
20190920192053 79 347 1.0 3.0 0.00 0.00 0.00 38 1016.2
20190920191049 79 337 0.0 2.0 0.00 0.00 0.00 39 1016.2
20190920190046 79 308 0.0 3.0 0.00 0.00 0.00 39 1016.3
20190920185042 78 135 0.0 3.0 0.00 0.00 0.00 40 1016.4
20190920184040 77 191 0.0 2.0 0.00 0.00 0.00 41 1016.5
20190920183036 77 85 2.0 5.0 0.00 0.00 0.00 41 1016.6
20190920182032 77 105 1.0 3.0 0.00 0.00 0.00 40 1016.7
20190920181029 77 250 1.0 3.0 0.00 0.00 0.00 41 1016.9
20190920180025 77 183 1.0 3.0 0.00 0.00 0.00 40 1017.0
20190920175022 77 199 2.0 3.0 0.00 0.00 0.00 40 1017.0
20190920174019 77 278 1.0 3.0 0.00 0.00 0.00 41 1017.1
20190920173015 76 303 2.0 6.0 0.00 0.00 0.00 41 1017.2
20190920172112 75 255 0.0 3.0 0.00 0.00 0.00 41 1017.3
20190920171109 74 140 1.0 3.0 0.00 0.00 0.00 42 1017.5
20190920170105 74 315 1.0 4.0 0.00 0.00 0.00 43 1017.7
20190920165102 74 310 2.0 6.0 0.00 0.00 0.00 44 1017.7
20190920164058 73 310 1.0 4.0 0.00 0.00 0.00 43 1017.9
20190920163055 72 53 1.0 4.0 0.00 0.00 0.00 44 1018.0
20190920162051 72 335 1.0 4.0 0.00 0.00 0.00 45 1018.1
20190920161048 71 211 0.0 3.0 0.00 0.00 0.00 48 1018.1
20190920160044 70 208 1.0 3.0 0.00 0.00 0.00 49 1018.2
20190920155041 70 214 1.0 3.0 0.00 0.00 0.00 51 1018.3
20190920154038 69 287 0.0 3.0 0.00 0.00 0.00 52 1018.4
20190920153035 68 283 1.0 5.0 0.00 0.00 0.00 53 1018.4
20190920152031 68 292 1.0 3.0 0.00 0.00 0.00 53 1018.5
20190920151028 67 258 0.0 3.0 0.00 0.00 0.00 55 1018.6
20190920150025 66 294 1.0 4.0 0.00 0.00 0.00 54 1018.8
20190920145021 66 211 0.0 3.0 0.00 0.00 0.00 56 1018.9
20190920144018 66 209 0.0 2.0 0.00 0.00 0.00 56 1019.0
20190920143015 66 292 1.0 3.0 0.00 0.00 0.00 57 1019.1
20190920142112 65 29 0.0 3.0 0.00 0.00 0.00 58 1019.2
20190920141108 65 225 0.0 2.0 0.00 0.00 0.00 60 1019.3
20190920140105 64 256 1.0 4.0 0.00 0.00 0.00 59 1019.4
20190920135101 64 291 2.0 6.0 0.00 0.00 0.00 63 1019.5
20190920134058 63 274 0.0 2.0 0.00 0.00 0.00 66 1019.6
20190920133055 61 210 0.0 1.0 0.00 0.00 0.00 70 1019.7
20190920132052 60 251 0.0 2.0 0.00 0.00 0.00 72 1019.8
20190920131048 59 225 0.0 1.0 0.00 0.00 0.00 75 1019.7
20190920130045 57 343 0.0 2.0 0.00 0.00 0.00 80 1019.6
20190920125042 55 291 0.0 3.0 0.00 0.00 0.00 84 1019.7
20190920124038 54 311 0.0 2.0 0.00 0.00 0.00 89 1019.8
20190920123034 52 337 0.0 2.0 0.00 0.00 0.00 93 1019.8
20190920122031 50 45 0.0 1.0 0.00 0.00 0.00 96 1019.7
20190920121028 49 45 0.0 1.0 0.00 0.00 0.00 97 1019.7
20190920120024 47 0.0 0.0 0.00 0.00 0.00 98 1019.6
20190920115020 45 0.0 0.0 0.00 0.00 0.00 97 1019.6
20190920114017 44 0.0 0.0 0.00 0.00 0.00 97 1019.6
20190920113114 44 0.0 0.0 0.00 0.00 0.00 98 1019.5
20190920112110 43 0.0 0.0 0.00 0.00 0.00 98 1019.4
20190920111107 43 0.0 0.0 0.00 0.00 0.00 98 1019.4
20190920110104 43 0.0 0.0 0.00 0.00 0.00 97 1019.3
20190920105100 43 0.0 1.0 0.00 0.00 0.00 97 1019.3
20190920104057 44 0.0 0.0 0.00 0.00 0.00 97 1019.3
20190920103054 44 0.0 1.0 0.00 0.00 0.00 97 1019.3
20190920102050 44 149 0.0 2.0 0.00 0.00 0.00 96 1019.3
20190920101047 44 0.0 0.0 0.00 0.00 0.00 96 1019.4
20190920100047 44 0.0 0.0 0.00 0.00 0.00 96 1019.4
20190920095040 44 0.0 1.0 0.00 0.00 0.00 95 1019.4
20190920094037 44 0.0 0.0 0.00 0.00 0.00 95 1019.3
20190920093034 45 0.0 0.0 0.00 0.00 0.00 95 1019.2
20190920092030 45 0.0 0.0 0.00 0.00 0.00 94 1019.1
20190920091027 45 0.0 0.0 0.00 0.00 0.00 94 1019.1
20190920090024 45 0.0 0.0 0.00 0.00 0.00 94 1019.1
20190920085021 45 0.0 0.0 0.00 0.00 0.00 94 1019.1
20190920084017 46 0.0 0.0 0.00 0.00 0.00 94 1019.1
20190920083114 46 0.0 0.0 0.00 0.00 0.00 93 1019.1
20190920082110 46 0.0 0.0 0.00 0.00 0.00 93 1019.1
20190920081107 46 0.0 1.0 0.00 0.00 0.00 93 1019.0
20190920080103 46 0.0 0.0 0.00 0.00 0.00 92 1019.1
20190920075100 46 0.0 0.0 0.00 0.00 0.00 92 1019.2
20190920074056 47 135 0.0 1.0 0.00 0.00 0.00 92 1019.2
20190920073053 47 0.0 0.0 0.00 0.00 0.00 92 1019.3
20190920072049 48 0.0 0.0 0.00 0.00 0.00 91 1019.3
20190920071046 48 0.0 0.0 0.00 0.00 0.00 90 1019.5
20190920070043 49 0.0 0.0 0.00 0.00 0.00 91 1019.5
20190920065039 49 0.0 0.0 0.00 0.00 0.00 91 1019.6